| time (UTC) | temp F | wind direction | speed MPH | gust MPH | rain 1hr in | rain 24hr in | rain mn in | humidity % | barometer mb |
| 20260502194912 | 67 | 306 | 1.0 | 5.0 | 0.00 | 0.00 | 0.00 | 36 | 977.3 |
| 20260502194413 | 68 | 307 | 1.0 | 5.0 | 0.00 | 0.00 | 0.00 | 35 | 977.4 |
| 20260502193912 | 68 | 316 | 1.0 | 9.0 | 0.00 | 0.00 | 0.00 | 34 | 977.5 |
| 20260502192911 | 70 | 0 | 5.0 | 10.0 | 0.00 | 0.00 | 0.00 | 34 | 977.6 |
| 20260502192414 | 70 | 6 | 5.0 | 7.0 | 0.00 | 0.00 | 0.00 | 34 | 977.5 |
| 20260502191913 | 69 | 72 | 3.0 | 10.0 | 0.00 | 0.00 | 0.00 | 35 | 977.7 |
| 20260502191420 | 68 | 7 | 2.0 | 5.0 | 0.00 | 0.00 | 0.00 | 36 | 977.8 |
| 20260502191412 | 69 | 0 | 1.0 | 10.0 | 0.00 | 0.00 | 0.00 | 37 | 977.7 |
| 20260502190412 | 68 | 11 | 1.0 | 6.0 | 0.00 | 0.00 | 0.00 | 37 | 977.9 |
| 20260502185911 | 68 | 0 | 4.0 | 6.0 | 0.00 | 0.00 | 0.00 | 36 | 978.0 |
| 20260502185413 | 67 | 41 | 2.0 | 7.0 | 0.00 | 0.00 | 0.00 | 37 | 978.0 |
| 20260502184910 | 67 | 334 | 2.0 | 7.0 | 0.00 | 0.00 | 0.00 | 36 | 978.1 |
| 20260502184413 | 67 | 0 | 3.0 | 7.0 | 0.00 | 0.00 | 0.00 | 36 | 978.1 |
| 20260502183910 | 67 | 13 | 6.0 | 9.0 | 0.00 | 0.00 | 0.00 | 37 | 978.1 |
| 20260502183421 | 68 | 7 | 4.0 | 7.0 | 0.00 | 0.00 | 0.00 | 36 | 978.3 |
| 20260502183413 | 67 | 10 | 3.0 | 9.0 | 0.00 | 0.00 | 0.00 | 36 | 978.2 |
| 20260502183034 | 68 | 341 | 5.0 | 7.0 | 0.00 | 0.00 | 0.00 | 37 | 978.4 |
| 20260502181910 | 67 | 298 | 1.0 | 4.0 | 0.00 | 0.00 | 0.00 | 39 | 978.3 |
| 20260502181413 | 67 | 197 | 3.0 | 5.0 | 0.00 | 0.00 | 0.00 | 36 | 978.4 |
| 20260502180910 | 66 | 327 | 3.0 | 5.0 | 0.00 | 0.00 | 0.00 | 37 | 978.5 |
| 20260502180411 | 66 | 347 | 4.0 | 5.0 | 0.00 | 0.00 | 0.00 | 38 | 978.6 |
| 20260502170409 | 61 | 118 | 0.0 | 2.0 | 0.00 | 0.00 | 0.00 | 47 | 979.0 |
| 20260502163908 | 62 | 111 | 1.0 | 3.0 | 0.00 | 0.00 | 0.00 | 45 | 979.1 |
| 20260502163410 | 62 | 110 | 0.0 | 3.0 | 0.00 | 0.00 | 0.00 | 46 | 979.0 |
| 20260502162914 | 61 | 110 | 2.0 | 3.0 | 0.00 | 0.00 | 0.00 | 51 | 979.0 |
| 20260502162907 | 61 | 110 | 1.0 | 3.0 | 0.00 | 0.00 | 0.00 | 48 | 979.0 |
| 20260502161906 | 60 | 111 | 1.0 | 6.0 | 0.00 | 0.00 | 0.00 | 49 | 979.0 |
| 20260502161416 | 60 | 125 | 1.0 | 4.0 | 0.00 | 0.00 | 0.00 | 52 | 979.1 |
| 20260502161409 | 60 | 110 | 4.0 | 6.0 | 0.00 | 0.00 | 0.00 | 48 | 979.0 |
| 20260502160408 | 60 | 127 | 2.0 | 4.0 | 0.00 | 0.00 | 0.00 | 53 | 979.2 |
| 20260502151906 | 54 | 286 | 1.0 | 3.0 | 0.00 | 0.00 | 0.00 | 62 | 979.4 |
| 20260502151407 | 53 | 286 | 2.0 | 4.0 | 0.00 | 0.00 | 0.00 | 63 | 979.4 |
| 20260502150905 | 53 | 286 | 3.0 | 4.0 | 0.00 | 0.00 | 0.00 | 64 | 979.4 |
| 20260502150413 | 53 | 286 | 0.0 | 4.0 | 0.00 | 0.00 | 0.00 | 65 | 979.4 |
| 20260502150406 | 53 | 285 | 3.0 | 4.0 | 0.00 | 0.00 | 0.00 | 65 | 979.3 |
| 20260502130403 | 49 | 310 | 1.0 | 3.0 | 0.00 | 0.00 | 0.00 | 71 | 979.1 |
| 20260502123403 | 49 | 324 | 2.0 | 3.0 | 0.00 | 0.00 | 0.00 | 69 | 978.8 |
| 20260502122901 | 50 | 324 | 1.0 | 3.0 | 0.00 | 0.00 | 0.00 | 67 | 979.0 |
| 20260502122402 | 50 | 324 | 1.0 | 4.0 | 0.00 | 0.00 | 0.00 | 66 | 979.1 |
| 20260502121900 | 50 | 324 | 3.0 | 4.0 | 0.00 | 0.00 | 0.00 | 67 | 979.1 |
| 20260502121411 | 50 | 331 | 2.0 | 4.0 | 0.00 | 0.00 | 0.00 | 65 | 979.0 |
| 20260502121402 | 50 | 329 | 3.0 | 4.0 | 0.00 | 0.00 | 0.00 | 66 | 979.1 |
| 20260502120402 | 50 | 331 | 0.0 | 2.0 | 0.00 | 0.00 | 0.00 | 65 | 979.0 |
| 20260502115900 | 50 | 331 | 1.0 | 2.0 | 0.00 | 0.00 | 0.00 | 65 | 979.0 |
| 20260502115403 | 50 | 331 | 1.0 | 2.0 | 0.00 | 0.00 | 0.00 | 65 | 979.1 |
| 20260502114900 | 50 | 331 | 0.0 | 0.0 | 0.00 | 0.00 | 0.00 | 65 | 979.2 |
| 20260502114411 | 50 | 331 | 0.0 | 0.0 | 0.00 | 0.00 | 0.00 | 65 | 979.1 |
| 20260502114403 | 50 | 331 | 0.0 | 0.0 | 0.00 | 0.00 | 0.00 | 65 | 979.1 |
| 20260502114024 | 50 | 331 | 0.0 | 0.0 | 0.00 | 0.00 | 0.00 | 65 | 979.1 |
| 20260502112907 | 50 | 331 | 0.0 | 0.0 | 0.00 | 0.00 | 0.00 | 64 | 979.1 |
| 20260502112900 | 50 | 331 | 0.0 | 0.0 | 0.00 | 0.00 | 0.00 | 64 | 979.1 |
| 20260502112527 | 51 | 331 | 0.0 | 1.0 | 0.00 | 0.00 | 0.00 | 63 | 979.1 |
| 20260502111400 | 51 | 331 | 0.0 | 1.0 | 0.00 | 0.00 | 0.00 | 63 | 979.0 |
| 20260502110900 | 51 | 331 | 0.0 | 0.0 | 0.00 | 0.00 | 0.00 | 63 | 979.0 |
| 20260502110408 | 51 | 331 | 0.0 | 0.0 | 0.00 | 0.00 | 0.00 | 63 | 979.0 |
| 20260502110400 | 51 | 331 | 0.0 | 0.0 | 0.00 | 0.00 | 0.00 | 63 | 979.0 |
| 20260502105408 | 51 | 331 | 0.0 | 0.0 | 0.00 | 0.00 | 0.00 | 63 | 979.0 |
| 20260502105400 | 51 | 331 | 0.0 | 0.0 | 0.00 | 0.00 | 0.00 | 63 | 979.1 |
| 20260502104400 | 51 | 331 | 0.0 | 0.0 | 0.00 | 0.00 | 0.00 | 63 | 979.0 |
| 20260502103858 | 51 | 331 | 0.0 | 1.0 | 0.00 | 0.00 | 0.00 | 63 | 979.0 |
| 20260502103400 | 51 | 331 | 0.0 | 1.0 | 0.00 | 0.00 | 0.00 | 62 | 979.0 |
| 20260502102858 | 51 | 331 | 1.0 | 1.0 | 0.00 | 0.00 | 0.00 | 62 | 978.8 |
| 20260502102406 | 51 | 331 | 0.0 | 3.0 | 0.00 | 0.00 | 0.00 | 61 | 978.8 |
| 20260502102359 | 51 | 331 | 0.0 | 0.0 | 0.00 | 0.00 | 0.00 | 61 | 979.0 |
| 20260502101359 | 51 | 331 | 1.0 | 3.0 | 0.00 | 0.00 | 0.00 | 61 | 978.7 |
| 20260502100858 | 51 | 0 | 0.0 | 0.0 | 0.00 | 0.00 | 0.00 | 61 | 978.7 |
| 20260502100408 | 51 | 0 | 0.0 | 0.0 | 0.00 | 0.00 | 0.00 | 61 | 978.7 |
| 20260502100359 | 51 | 0 | 0.0 | 0.0 | 0.00 | 0.00 | 0.00 | 61 | 978.7 |
| 20260502091357 | 53 | 0 | 2.0 | 3.0 | 0.00 | 0.00 | 0.00 | 58 | 978.3 |
| 20260502090904 | 53 | 0 | 0.0 | 4.0 | 0.00 | 0.00 | 0.00 | 57 | 978.3 |
| 20260502090856 | 53 | 0 | 1.0 | 3.0 | 0.00 | 0.00 | 0.00 | 57 | 978.3 |
| 20260502071355 | 57 | 319 | 8.0 | 15.0 | 0.00 | 0.00 | 0.00 | 50 | 977.3 |
| 20260502070854 | 57 | 334 | 7.0 | 14.0 | 0.00 | 0.00 | 0.00 | 50 | 977.3 |
| 20260502070354 | 57 | 350 | 9.0 | 16.0 | 0.00 | 0.00 | 0.00 | 49 | 977.1 |
| 20260502065854 | 57 | 348 | 8.0 | 16.0 | 0.00 | 0.00 | 0.00 | 49 | 976.9 |
| 20260502065355 | 58 | 8 | 9.0 | 16.0 | 0.00 | 0.00 | 0.00 | 48 | 976.5 |
| 20260502064853 | 58 | 0 | 9.0 | 16.0 | 0.00 | 0.00 | 0.00 | 47 | 976.3 |
| 20260502064354 | 58 | 28 | 6.0 | 22.0 | 0.00 | 0.00 | 0.00 | 46 | 976.0 |
| 20260502063853 | 59 | 52 | 11.0 | 22.0 | 0.00 | 0.00 | 0.00 | 45 | 975.8 |
| 20260502063354 | 59 | 93 | 7.0 | 17.0 | 0.00 | 0.00 | 0.00 | 45 | 975.6 |
| 20260502062852 | 59 | 52 | 8.0 | 18.0 | 0.00 | 0.00 | 0.00 | 45 | 975.7 |
| 20260502062407 | 59 | 80 | 10.0 | 20.0 | 0.00 | 0.00 | 0.00 | 44 | 975.3 |
| 20260502062354 | 59 | 42 | 9.0 | 20.0 | 0.00 | 0.00 | 0.00 | 45 | 975.5 |
| 20260502061858 | 59 | 55 | 9.0 | 20.0 | 0.00 | 0.00 | 0.00 | 45 | 975.4 |
| 20260502061851 | 59 | 62 | 5.0 | 20.0 | 0.00 | 0.00 | 0.00 | 45 | 975.5 |
| 20260502060352 | 59 | 38 | 10.0 | 17.0 | 0.00 | 0.00 | 0.00 | 44 | 975.3 |
| 20260502055852 | 60 | 14 | 9.0 | 17.0 | 0.00 | 0.00 | 0.00 | 44 | 975.1 |
| 20260502055352 | 60 | 3 | 9.0 | 15.0 | 0.00 | 0.00 | 0.00 | 44 | 975.1 |
| 20260502054851 | 60 | 51 | 9.0 | 18.0 | 0.00 | 0.00 | 0.00 | 44 | 975.0 |
| 20260502054352 | 60 | 355 | 9.0 | 18.0 | 0.00 | 0.00 | 0.00 | 43 | 975.0 |
| 20260502053852 | 60 | 1 | 8.0 | 17.0 | 0.00 | 0.00 | 0.00 | 43 | 974.8 |
| 20260502053352 | 61 | 14 | 9.0 | 17.0 | 0.00 | 0.00 | 0.00 | 43 | 974.8 |
| 20260502052851 | 61 | 1 | 7.0 | 14.0 | 0.00 | 0.00 | 0.00 | 42 | 974.8 |
| 20260502052352 | 61 | 0 | 7.0 | 14.0 | 0.00 | 0.00 | 0.00 | 41 | 974.6 |
| 20260502051851 | 61 | 347 | 7.0 | 12.0 | 0.00 | 0.00 | 0.00 | 39 | 974.5 |
| 20260502051352 | 62 | 4 | 6.0 | 12.0 | 0.00 | 0.00 | 0.00 | 37 | 974.4 |
| 20260502050850 | 62 | 0 | 6.0 | 11.0 | 0.00 | 0.00 | 0.00 | 36 | 974.3 |
| 20260502050352 | 62 | 355 | 4.0 | 13.0 | 0.00 | 0.00 | 0.00 | 34 | 974.2 |
| 20260502045850 | 62 | 345 | 7.0 | 13.0 | 0.00 | 0.00 | 0.00 | 33 | 974.2 |
| 20260502045350 | 61 | 21 | 6.0 | 9.0 | 0.00 | 0.00 | 0.00 | 33 | 974.1 |
| 20260502044849 | 62 | 357 | 3.0 | 7.0 | 0.00 | 0.00 | 0.00 | 34 | 974.0 |
| 20260502044350 | 62 | 326 | 0.0 | 2.0 | 0.00 | 0.00 | 0.00 | 36 | 973.8 |
| 20260502043849 | 62 | 326 | 1.0 | 4.0 | 0.00 | 0.00 | 0.00 | 37 | 973.7 |
| 20260502043352 | 63 | 326 | 1.0 | 4.0 | 0.00 | 0.00 | 0.00 | 31 | 973.8 |
| 20260502042849 | 64 | 326 | 3.0 | 4.0 | 0.00 | 0.00 | 0.00 | 30 | 973.7 |
| 20260502042350 | 64 | 327 | 1.0 | 3.0 | 0.00 | 0.00 | 0.00 | 30 | 973.8 |
| 20260502041849 | 64 | 327 | 1.0 | 2.0 | 0.00 | 0.00 | 0.00 | 29 | 973.6 |
| 20260502041350 | 65 | 327 | 0.0 | 2.0 | 0.00 | 0.00 | 0.00 | 29 | 973.7 |
| 20260502040849 | 65 | 327 | 1.0 | 3.0 | 0.00 | 0.00 | 0.00 | 29 | 973.6 |
| 20260502040349 | 65 | 327 | 2.0 | 4.0 | 0.00 | 0.00 | 0.00 | 29 | 973.6 |
| 20260502035848 | 66 | 327 | 2.0 | 4.0 | 0.00 | 0.00 | 0.00 | 28 | 973.6 |
| 20260502035350 | 66 | 329 | 2.0 | 5.0 | 0.00 | 0.00 | 0.00 | 28 | 973.5 |
| 20260502034848 | 67 | 329 | 2.0 | 7.0 | 0.00 | 0.00 | 0.00 | 27 | 973.6 |
| 20260502034349 | 67 | 0 | 2.0 | 7.0 | 0.00 | 0.00 | 0.00 | 26 | 973.5 |
| 20260502033847 | 66 | 0 | 6.0 | 7.0 | 0.00 | 0.00 | 0.00 | 26 | 973.5 |
| 20260502033349 | 66 | 350 | 5.0 | 10.0 | 0.00 | 0.00 | 0.00 | 27 | 973.5 |
| 20260502032848 | 66 | 317 | 6.0 | 11.0 | 0.00 | 0.00 | 0.00 | 28 | 973.4 |
| 20260502032348 | 66 | 307 | 8.0 | 16.0 | 0.00 | 0.00 | 0.00 | 28 | 973.4 |
| 20260502031848 | 65 | 338 | 6.0 | 16.0 | 0.00 | 0.00 | 0.00 | 28 | 973.3 |
| 20260502031348 | 65 | 316 | 5.0 | 16.0 | 0.00 | 0.00 | 0.00 | 30 | 973.2 |
| 20260502030848 | 65 | 268 | 3.0 | 7.0 | 0.00 | 0.00 | 0.00 | 30 | 972.9 |
| 20260502030347 | 65 | 290 | 2.0 | 11.0 | 0.00 | 0.00 | 0.00 | 30 | 972.9 |
| 20260502025848 | 66 | 274 | 4.0 | 11.0 | 0.00 | 0.00 | 0.00 | 29 | 972.7 |
| 20260502025347 | 66 | 314 | 5.0 | 13.0 | 0.00 | 0.00 | 0.00 | 28 | 972.8 |
| 20260502024847 | 66 | 307 | 6.0 | 13.0 | 0.00 | 0.00 | 0.00 | 28 | 972.5 |
| 20260502024348 | 67 | 259 | 6.0 | 10.0 | 0.00 | 0.00 | 0.00 | 28 | 972.5 |
| 20260502023846 | 67 | 286 | 6.0 | 11.0 | 0.00 | 0.00 | 0.00 | 28 | 972.4 |
| 20260502023347 | 67 | 269 | 7.0 | 11.0 | 0.00 | 0.00 | 0.00 | 27 | 972.4 |
| 20260502022847 | 67 | 216 | 4.0 | 9.0 | 0.00 | 0.00 | 0.00 | 27 | 972.3 |
| 20260502022348 | 68 | 259 | 6.0 | 9.0 | 0.00 | 0.00 | 0.00 | 27 | 972.3 |
| 20260502021852 | 68 | 252 | 4.0 | 7.0 | 0.00 | 0.00 | 0.00 | 26 | 972.3 |
| 20260502021845 | 68 | 252 | 4.0 | 7.0 | 0.00 | 0.00 | 0.00 | 27 | 972.3 |
| 20260502020845 | 69 | 274 | 3.0 | 7.0 | 0.00 | 0.00 | 0.00 | 26 | 972.3 |
| 20260502020356 | 69 | 258 | 5.0 | 11.0 | 0.00 | 0.00 | 0.00 | 25 | 972.2 |
| 20260502020347 | 69 | 269 | 3.0 | 10.0 | 0.00 | 0.00 | 0.00 | 25 | 972.2 |
| 20260502015347 | 69 | 262 | 6.0 | 13.0 | 0.00 | 0.00 | 0.00 | 25 | 972.2 |
| 20260502014845 | 70 | 268 | 5.0 | 16.0 | 0.00 | 0.00 | 0.00 | 24 | 972.2 |
| 20260502014346 | 70 | 285 | 6.0 | 16.0 | 0.00 | 0.00 | 0.00 | 24 | 972.3 |
| 20260502013846 | 70 | 296 | 7.0 | 13.0 | 0.00 | 0.00 | 0.00 | 23 | 972.3 |
| 20260502013355 | 71 | 264 | 5.0 | 11.0 | 0.00 | 0.00 | 0.00 | 22 | 972.2 |
| 20260502013347 | 71 | 265 | 2.0 | 11.0 | 0.00 | 0.00 | 0.00 | 23 | 972.3 |
| 20260502013010 | 71 | 244 | 1.0 | 11.0 | 0.00 | 0.00 | 0.00 | 22 | 972.3 |
| 20260502011845 | 72 | 257 | 2.0 | 13.0 | 0.00 | 0.00 | 0.00 | 21 | 972.2 |
| 20260502011345 | 72 | 278 | 2.0 | 14.0 | 0.00 | 0.00 | 0.00 | 21 | 972.3 |
| 20260502010844 | 72 | 250 | 3.0 | 14.0 | 0.00 | 0.00 | 0.00 | 21 | 972.2 |
| 20260502010346 | 72 | 264 | 6.0 | 18.0 | 0.00 | 0.00 | 0.00 | 20 | 972.3 |
| 20260502005845 | 73 | 254 | 11.0 | 18.0 | 0.00 | 0.00 | 0.00 | 20 | 972.2 |
| 20260502005346 | 73 | 217 | 5.0 | 13.0 | 0.00 | 0.00 | 0.00 | 22 | 972.3 |
| 20260502004844 | 73 | 288 | 7.0 | 13.0 | 0.00 | 0.00 | 0.00 | 20 | 972.3 |
| 20260502004345 | 73 | 262 | 7.0 | 13.0 | 0.00 | 0.00 | 0.00 | 19 | 972.4 |
| 20260502003849 | 73 | 266 | 7.0 | 17.0 | 0.00 | 0.00 | 0.00 | 19 | 972.5 |
| 20260502003842 | 73 | 276 | 8.0 | 17.0 | 0.00 | 0.00 | 0.00 | 19 | 972.4 |
| 20260502002844 | 74 | 309 | 10.0 | 17.0 | 0.00 | 0.00 | 0.00 | 18 | 972.5 |
| 20260502002343 | 74 | 286 | 9.0 | 14.0 | 0.00 | 0.00 | 0.00 | 18 | 972.5 |
| 20260502001843 | 75 | 283 | 8.0 | 15.0 | 0.00 | 0.00 | 0.00 | 19 | 972.4 |
| 20260502001346 | 75 | 210 | 6.0 | 16.0 | 0.00 | 0.00 | 0.00 | 18 | 972.4 |
| 20260502000843 | 76 | 285 | 10.0 | 16.0 | 0.00 | 0.00 | 0.00 | 18 | 972.2 |
| 20260502000344 | 76 | 238 | 4.0 | 15.0 | 0.00 | 0.00 | 0.00 | 18 | 972.3 |
| 20260501235843 | 77 | 258 | 3.0 | 14.0 | 0.00 | 0.00 | 0.00 | 18 | 972.2 |
| 20260501235343 | 77 | 276 | 7.0 | 19.0 | 0.00 | 0.00 | 0.00 | 19 | 972.2 |
| 20260501234841 | 77 | 268 | 6.0 | 19.0 | 0.00 | 0.00 | 0.00 | 17 | 972.3 |
| 20260501234344 | 77 | 306 | 10.0 | 15.0 | 0.00 | 0.00 | 0.00 | 17 | 972.2 |
| 20260501233842 | 77 | 278 | 7.0 | 12.0 | 0.00 | 0.00 | 0.00 | 18 | 972.1 |
| 20260501233343 | 77 | 286 | 3.0 | 10.0 | 0.00 | 0.00 | 0.00 | 18 | 972.2 |
| 20260501232849 | 77 | 285 | 5.0 | 10.0 | 0.00 | 0.00 | 0.00 | 17 | 972.2 |
| 20260501232842 | 77 | 247 | 6.0 | 10.0 | 0.00 | 0.00 | 0.00 | 18 | 972.1 |
| 20260501231841 | 77 | 234 | 0.0 | 12.0 | 0.00 | 0.00 | 0.00 | 20 | 972.2 |
| 20260501231349 | 76 | 324 | 5.0 | 11.0 | 0.00 | 0.00 | 0.00 | 20 | 972.4 |
| 20260501231342 | 77 | 251 | 4.0 | 12.0 | 0.00 | 0.00 | 0.00 | 18 | 972.3 |
| 20260501230341 | 75 | 190 | 6.0 | 11.0 | 0.00 | 0.00 | 0.00 | 20 | 972.3 |
| 20260501225842 | 74 | 210 | 2.0 | 13.0 | 0.00 | 0.00 | 0.00 | 22 | 972.5 |
| 20260501225350 | 76 | 190 | 7.0 | 16.0 | 0.00 | 0.00 | 0.00 | 19 | 972.5 |
| 20260501225342 | 75 | 152 | 2.0 | 16.0 | 0.00 | 0.00 | 0.00 | 22 | 972.5 |
| 20260501224344 | 76 | 244 | 7.0 | 12.0 | 0.00 | 0.00 | 0.00 | 19 | 972.5 |
| 20260501223841 | 77 | 141 | 4.0 | 9.0 | 0.00 | 0.00 | 0.00 | 20 | 972.8 |
| 20260501223342 | 76 | 224 | 2.0 | 9.0 | 0.00 | 0.00 | 0.00 | 20 | 972.8 |
| 20260501222839 | 76 | 179 | 4.0 | 9.0 | 0.00 | 0.00 | 0.00 | 18 | 972.8 |
| 20260501222342 | 77 | 175 | 2.0 | 15.0 | 0.00 | 0.00 | 0.00 | 18 | 972.9 |
| 20260501221847 | 78 | 281 | 10.0 | 15.0 | 0.00 | 0.00 | 0.00 | 18 | 973.0 |
| 20260501221840 | 78 | 183 | 5.0 | 15.0 | 0.00 | 0.00 | 0.00 | 18 | 972.9 |
| 20260501220841 | 78 | 265 | 6.0 | 15.0 | 0.00 | 0.00 | 0.00 | 18 | 973.0 |
| 20260501220350 | 77 | 288 | 6.0 | 13.0 | 0.00 | 0.00 | 0.00 | 18 | 973.1 |
| 20260501220341 | 78 | 200 | 7.0 | 13.0 | 0.00 | 0.00 | 0.00 | 18 | 973.0 |
| 20260501215339 | 76 | 321 | 7.0 | 10.0 | 0.00 | 0.00 | 0.00 | 19 | 973.1 |
| 20260501214839 | 76 | 144 | 2.0 | 5.0 | 0.00 | 0.00 | 0.00 | 20 | 973.1 |
| 20260501214342 | 76 | 175 | 0.0 | 7.0 | 0.00 | 0.00 | 0.00 | 20 | 973.3 |
| 20260501213840 | 76 | 172 | 1.0 | 7.0 | 0.00 | 0.00 | 0.00 | 18 | 973.4 |
| 20260501213339 | 77 | 199 | 0.0 | 10.0 | 0.00 | 0.00 | 0.00 | 20 | 973.4 |
| 20260501212838 | 77 | 214 | 2.0 | 11.0 | 0.00 | 0.00 | 0.00 | 20 | 973.5 |
| 20260501212340 | 77 | 175 | 5.0 | 11.0 | 0.00 | 0.00 | 0.00 | 20 | 973.6 |
| 20260501211838 | 77 | 183 | 1.0 | 7.0 | 0.00 | 0.00 | 0.00 | 23 | 973.6 |
| 20260501211340 | 78 | 168 | 4.0 | 7.0 | 0.00 | 0.00 | 0.00 | 21 | 973.7 |
| 20260501210839 | 78 | 276 | 4.0 | 7.0 | 0.00 | 0.00 | 0.00 | 21 | 973.7 |
| 20260501210339 | 77 | 355 | 4.0 | 10.0 | 0.00 | 0.00 | 0.00 | 19 | 973.7 |
| 20260501205838 | 77 | 262 | 1.0 | 10.0 | 0.00 | 0.00 | 0.00 | 20 | 973.9 |
| 20260501205339 | 77 | 207 | 2.0 | 11.0 | 0.00 | 0.00 | 0.00 | 19 | 973.9 |
| 20260501204845 | 78 | 343 | 7.0 | 11.0 | 0.00 | 0.00 | 0.00 | 18 | 974.0 |
| 20260501204838 | 78 | 309 | 2.0 | 11.0 | 0.00 | 0.00 | 0.00 | 18 | 973.9 |
| 20260501204505 | 77 | 244 | 0.0 | 10.0 | 0.00 | 0.00 | 0.00 | 18 | 974.0 |
| 20260501203339 | 77 | 289 | 4.0 | 7.0 | 0.00 | 0.00 | 0.00 | 19 | 974.1 |
| 20260501202837 | 76 | 358 | 3.0 | 6.0 | 0.00 | 0.00 | 0.00 | 18 | 974.1 |
| 20260501202338 | 76 | 320 | 3.0 | 5.0 | 0.00 | 0.00 | 0.00 | 19 | 974.2 |
| 20260501201836 | 76 | 216 | 2.0 | 9.0 | 0.00 | 0.00 | 0.00 | 22 | 974.3 |
| 20260501201338 | 76 | 178 | 4.0 | 13.0 | 0.00 | 0.00 | 0.00 | 18 | 974.4 |
| 20260501200837 | 75 | 316 | 8.0 | 13.0 | 0.00 | 0.00 | 0.00 | 18 | 974.4 |
| 20260501200338 | 77 | 173 | 2.0 | 10.0 | 0.00 | 0.00 | 0.00 | 18 | 974.3 |
| 20260501195836 | 76 | 217 | 6.0 | 10.0 | 0.00 | 0.00 | 0.00 | 19 | 974.4 |
| 20260501195338 | 76 | 257 | 6.0 | 10.0 | 0.00 | 0.00 | 0.00 | 20 | 974.4 |